Wind_Speed
56 57 58 59 58 55 52 45 45 40 37 32 30 26 24 26 24 23 21 19 17 16 15 14 12 12 13 14 14 14 14 14 13 13 13 11 12 12 14 14 16 17 16
65 61 62 63 62 60 58 53 50 47 43 37 34 35 34 32 30 30 24 23 21 20 20 21 21 19 19 18 18 18 18 19 18 17 16 16 16 19 19 20 21 22 22
75 70 68 67 67 65 62 60 56 52 49 47 42 41 41 38 34 31 30 30 30 26 26 27 27 27 26 25 25 25 24 26 24 25 23 22 21 25 26 25 26 27 28
79 79 74 73 72 69 68 65 63 60 55 53 53 47 43 43 40 37 38 37 37 35 32 31 30 31 30 31 31 32 32 32 31 33 33 32 29 29 29 32 32 33 33
82 83 81 76 75 76 73 70 70 69 65 62 58 54 50 48 45 47 45 43 41 39 38 37 35 34 35 35 36 35 36 36 36 36 37 37 36 34 34 31 35 37 37
82 85 84 82 78 79 79 76 75 70 68 66 63 58 52 52 51 48 50 48 46 45 44 42 42 41 39 39 41 42 42 41 40 40 40 40 40 38 39 38 33 36 38
77 81 84 81 84 80 79 81 77 73 70 68 65 60 53 53 54 51 51 53 54 52 50 48 48 47 45 46 47 47 46 45 44 43 42 41 41 41 42 43 40 40 37
61 69 76 75 78 85 79 76 78 79 75 71 67 64 56 54 55 55 55 55 56 56 57 56 56 54 53 53 52 51 51 50 48 47 45 45 43 42 43 43 45 44 42
39 51 60 61 69 77 82 78 79 74 76 73 69 67 62 58 54 55 58 56 55 55 56 59 64 62 62 60 56 55 52 50 50 50 49 49 49 47 46 47 48 49 46
37 39 47 52 61 65 71 71 71 81 72 68 74 74 69 62 59 59 59 62 59 60 55 65 67 70 69 67 63 58 51 52 51 52 54 53 54 54 52 51 51 52 52
31 37 44 52 59 57 58 59 67 66 73 67 62 69 73 69 66 68 67 69 68 70 70 68 74 76 70 69 67 63 56 52 51 53 58 59 58 57 57 55 54 55 55
21 30 35 40 59 58 53 54 60 64 65 68 72 65 65 70 70 72 70 69 69 76 75 81 81 69 65 73 61 56 56 55 54 57 62 62 62 58 58 59 57 58 59
45 30 25 31 42 58 60 54 58 65 64 71 61 60 60 66 68 69 76 81 82 80 61 67 72 71 77 77 62 54 56 55 60 61 65 63 64 61 60 61 61 60 61
43 47 34 34 30 44 59 57 58 65 65 67 69 65 63 66 71 73 69 76 81 86 89 89 69 72 72 62 70 65 53 55 59 57 60 64 65 64 64 65 64 63 64
48 48 47 45 39 42 50 59 61 58 64 69 70 75 75 76 73 73 76 74 78 82 84 78 73 79 77 74 70 61 64 59 60 64 61 55 61 62 62 63 64 61 59
42 46 49 49 51 38 41 54 61 68 61 69 69 76 85 78 85 80 80 83 83 84 83 85 86 82 80 80 73 59 62 66 70 63 63 60 55 55 59 58 58 59 60
40 43 43 52 54 53 58 57 59 64 74 78 62 67 81 81 72 74 81 85 88 86 85 89 92 89 79 76 73 73 75 71 64 62 63 62 61 55 54 63 60 55 54
37 40 46 47 51 61 53 58 58 54 69 77 72 80 75 78 77 78 75 80 85 90 91 92 91 86 82 80 76 75 80 77 74 68 63 65 64 67 63 66 59 61 62
41 42 43 46 50 52 57 54 58 64 62 62 68 68 75 77 80 87 84 83 86 87 86 86 87 91 93 94 80 78 85 81 74 76 71 69 67 68 69 68 69 65 58
41 40 42 45 49 51 54 50 55 52 55 61 69 72 70 76 86 81 82 89 91 90 89 88 83 84 75 62 63 71 85 85 85 82 79 77 80 82 78 74 76 74 70
44 44 42 40 41 42 43 46 46 50 54 55 60 62 73 82 79 79 81 84 87 97 96 92 93 91 90 94 86 79 78 79 83 80 77 80 81 79 76 80 80 80 78
43 43 43 43 44 43 39 38 43 45 48 55 61 64 64 68 75 85 87 83 84 86 88 90 82 80 83 88 92 89 89 94 93 90 85 86 81 83 85 88 84 82 79
43 42 40 40 41 38 35 37 39 42 45 48 50 52 60 64 73 79 80 83 83 82 93 86 82 89 88 97 103 92 91 89 86 87 94 86 84 80 78 79 83 82 75
44 43 42 41 40 40 44 46 43 45 43 43 45 47 49 52 53 64 81 83 78 76 80 90 91 94 91 86 92 93 94 88 90 81 83 89 95 92 85 78 77 78 78
44 44 42 41 40 41 42 43 44 43 45 46 46 46 50 46 47 51 52 64 83 84 78 84 80 77 83 87 94 93 91 90 97 93 92 89 88 85 85 91 85 83 85
42 42 41 40 39 40 42 44 43 46 47 47 46 49 47 41 40 38 38 43 48 60 65 65 74 73 76 74 80 78 78 80 83 87 88 95 99 103 99 96 96 95 92
Wind_Direction
241 236 242 248 249 247 244 243 246 247 247 250 248 249 245 249 255 257 255 252 250 244 251 253 248 234 228 228 231 235 239 241 239 243 253 257 267 277 283 284 284 284 285
244 239 233 239 245 249 250 245 243 246 246 241 245 244 245 245 247 252 253 259 259 256 249 250 254 251 251 253 249 249 252 254 256 255 259 268 275 275 278 279 283 287 291
241 239 238 235 238 243 246 250 249 248 249 251 238 240 242 243 248 254 256 261 259 253 252 250 250 253 254 256 255 253 252 255 258 261 263 259 264 274 278 280 284 287 291
240 241 238 237 238 239 242 244 247 247 246 246 247 244 244 243 247 243 246 249 255 256 253 253 256 256 255 254 253 255 257 259 261 264 267 267 264 265 271 280 282 285 288
237 240 240 237 237 240 240 241 244 248 247 245 247 247 244 242 242 246 243 245 249 253 256 257 255 256 257 257 258 257 256 258 260 263 266 270 273 270 270 264 275 283 287
237 236 238 240 235 237 240 242 243 245 250 251 246 244 245 244 243 242 246 247 249 250 250 250 255 257 257 258 256 257 260 261 263 265 267 270 272 274 276 278 273 275 278
238 236 234 236 240 236 237 240 241 243 245 248 251 251 248 246 243 243 243 244 247 249 251 251 249 249 251 253 256 258 258 260 264 266 268 269 272 272 274 277 278 277 277
241 240 236 234 238 237 237 240 240 240 240 243 249 253 250 245 243 243 243 242 244 248 250 252 251 250 248 250 253 256 259 263 265 268 270 273 275 275 276 276 276 276 277
246 242 239 237 237 236 237 240 240 242 243 242 243 241 239 240 243 240 240 238 239 243 248 250 251 252 252 252 250 251 255 260 263 266 269 272 275 275 276 278 278 278 278
260 243 238 233 233 237 238 239 241 242 240 243 244 241 240 237 240 239 237 237 235 235 240 247 248 247 247 249 252 252 254 259 262 264 264 265 269 270 272 274 278 279 280
262 259 244 234 233 233 236 238 238 239 242 235 237 238 240 233 235 240 239 238 245 226 230 235 243 244 243 246 247 251 252 253 260 265 264 262 263 266 268 271 274 277 280
236 247 247 247 237 231 231 232 235 237 237 240 240 235 236 233 235 239 242 245 242 245 249 243 243 241 248 245 245 247 249 255 261 268 268 266 265 264 267 268 270 273 278
284 264 210 219 250 237 230 229 232 235 237 236 236 238 238 236 237 237 239 240 243 246 250 252 244 246 244 253 235 245 250 259 260 267 266 266 266 267 268 271 272 273 274
293 292 270 230 225 246 238 242 233 234 235 237 239 239 238 234 237 236 240 243 245 248 251 256 257 253 248 246 238 240 262 265 258 272 266 265 265 266 267 268 270 272 273
284 285 285 268 231 223 241 242 243 236 232 240 239 241 244 245 243 238 239 240 244 248 252 259 261 262 271 272 267 265 256 267 267 271 267 269 265 263 266 267 268 270 271
282 282 277 280 279 236 234 240 244 249 245 243 236 239 239 244 247 244 242 245 242 246 251 258 258 262 266 268 271 265 266 266 267 266 265 269 267 264 264 266 267 269 270
287 286 287 281 280 282 270 274 228 239 253 247 232 234 239 239 239 244 245 247 249 251 251 254 255 259 259 260 257 257 262 266 262 262 265 267 269 266 270 267 267 264 266
290 286 280 278 279 274 278 276 268 231 235 239 238 249 254 250 246 243 244 248 252 254 255 256 257 258 260 261 255 257 264 266 264 257 261 266 267 269 268 267 268 266 267
303 297 289 282 276 270 272 273 274 274 262 233 229 226 235 239 243 248 247 248 249 250 249 250 254 258 258 263 263 262 261 260 262 258 263 269 269 264 262 263 267 263 262
305 300 294 290 286 283 279 275 270 270 271 274 268 245 234 235 241 241 244 248 249 250 250 255 255 254 251 247 250 257 268 267 265 263 262 267 271 276 267 263 262 263 258
311 307 303 297 293 290 284 281 281 282 282 279 275 274 270 265 257 240 238 239 242 248 254 256 256 259 257 259 262 258 259 260 266 267 265 267 267 268 266 270 267 263 261
311 307 302 299 296 293 288 283 281 283 283 281 281 279 276 274 271 269 267 259 248 244 241 245 247 248 254 256 257 253 260 266 269 270 270 271 270 267 264 264 263 262 263
313 310 303 300 296 292 287 291 289 290 292 289 288 288 284 278 272 274 271 270 270 267 257 254 253 251 252 256 255 261 262 263 267 270 271 270 273 270 266 263 263 264 266
316 315 309 303 300 289 287 288 291 294 292 286 288 290 291 289 283 274 270 270 272 272 267 268 269 267 268 269 263 263 267 264 259 261 260 266 271 265 263 265 268 269 271
314 315 309 304 299 294 289 286 289 291 296 296 294 297 296 289 286 280 271 267 268 269 268 267 270 269 268 269 269 270 271 272 267 269 270 268 267 266 266 267 268 271 276
311 313 311 306 300 296 293 292 290 291 293 296 295 302 297 284 280 280 279 276 267 265 266 264 266 265 267 262 263 262 261 263 266 268 269 271 269 267 270 269 268 269 272
Height
5819 5824 5825 5829 5831 5836 5840 5846 5851 5856 5859 5863 5865 5867 5869 5871 5873 5874 5875 5875 5876 5877 5877 5878 5878 5878 5878 5879 5880 5881 5881 5881 5882 5882 5882 5883 5882 5881 5881 5882 5881 5880 5880
5804 5808 5812 5815 5819 5825 5831 5835 5839 5844 5849 5853 5858 5859 5860 5863 5866 5868 5871 5872 5873 5872 5873 5873 5874 5875 5875 5876 5876 5877 5877 5877 5877 5878 5879 5878 5879 5877 5878 5878 5877 5875 5874
5786 5792 5796 5800 5807 5812 5818 5823 5829 5834 5839 5843 5845 5848 5851 5854 5859 5863 5865 5866 5866 5867 5868 5868 5868 5870 5871 5871 5872 5872 5872 5871 5872 5872 5874 5874 5874 5872 5872 5872 5871 5870 5868
5769 5775 5782 5786 5791 5798 5803 5810 5814 5818 5825 5828 5832 5838 5842 5846 5851 5853 5854 5855 5857 5859 5860 5861 5862 5863 5864 5865 5865 5864 5865 5864 5865 5864 5865 5866 5868 5867 5867 5864 5864 5863 5862
5754 5757 5764 5773 5778 5780 5788 5794 5800 5804 5810 5814 5819 5825 5830 5835 5838 5841 5843 5846 5848 5850 5852 5853 5854 5855 5855 5856 5857 5857 5857 5857 5857 5857 5857 5857 5858 5860 5860 5862 5859 5856 5855
5732 5738 5747 5753 5762 5765 5769 5777 5785 5792 5797 5802 5807 5812 5819 5824 5826 5829 5833 5836 5837 5839 5841 5843 5845 5846 5847 5848 5848 5848 5848 5849 5849 5849 5850 5850 5849 5851 5850 5849 5854 5851 5850
5710 5717 5729 5736 5740 5750 5755 5761 5769 5777 5784 5788 5793 5801 5809 5811 5814 5816 5821 5823 5825 5827 5830 5832 5832 5834 5835 5836 5836 5837 5839 5840 5841 5841 5842 5843 5842 5841 5841 5840 5842 5841 5843
5693 5699 5710 5718 5721 5733 5740 5747 5755 5763 5769 5775 5782 5786 5794 5797 5801 5803 5806 5810 5814 5816 5816 5818 5819 5820 5821 5822 5824 5825 5827 5828 5831 5832 5832 5832 5833 5833 5832 5831 5829 5829 5830
5680 5682 5689 5700 5708 5715 5724 5730 5737 5744 5750 5758 5764 5770 5772 5777 5783 5789 5793 5795 5798 5803 5803 5803 5804 5805 5805 5805 5806 5811 5814 5815 5817 5819 5819 5819 5820 5821 5821 5821 5819 5817 5820
5673 5674 5676 5685 5692 5701 5708 5713 5718 5725 5732 5741 5748 5754 5758 5761 5766 5768 5773 5778 5782 5783 5785 5783 5786 5785 5786 5789 5793 5797 5802 5804 5805 5805 5805 5806 5806 5807 5808 5809 5809 5807 5806
5671 5670 5668 5673 5680 5688 5693 5698 5705 5710 5714 5720 5729 5737 5743 5746 5750 5752 5754 5757 5759 5758 5763 5761 5761 5764 5765 5771 5778 5784 5786 5787 5790 5791 5791 5792 5792 5794 5795 5795 5796 5795 5794
5663 5664 5666 5667 5672 5678 5683 5687 5689 5694 5699 5705 5711 5719 5726 5731 5734 5741 5743 5744 5746 5749 5742 5738 5739 5745 5750 5755 5761 5766 5771 5772 5774 5778 5778 5779 5779 5782 5781 5781 5782 5783 5782
5654 5656 5656 5658 5661 5664 5669 5674 5677 5682 5685 5689 5693 5699 5705 5712 5715 5720 5723 5723 5724 5722 5686 5711 5718 5733 5734 5730 5740 5748 5753 5757 5760 5764 5766 5766 5765 5769 5769 5769 5768 5769 5769
5646 5646 5649 5653 5649 5652 5654 5659 5663 5667 5671 5675 5679 5684 5688 5692 5697 5701 5706 5708 5710 5711 5709 5708 5713 5718 5718 5722 5726 5731 5738 5742 5746 5751 5752 5753 5752 5753 5754 5754 5754 5754 5755
5639 5638 5638 5639 5639 5639 5642 5646 5652 5652 5655 5660 5663 5668 5672 5676 5678 5683 5688 5692 5694 5693 5691 5695 5695 5694 5700 5703 5707 5716 5726 5728 5731 5736 5738 5738 5737 5737 5737 5737 5738 5738 5739
5630 5628 5629 5626 5625 5625 5629 5632 5635 5639 5642 5644 5647 5651 5654 5658 5662 5664 5667 5672 5673 5673 5673 5674 5677 5681 5685 5687 5690 5695 5705 5709 5715 5719 5721 5723 5722 5722 5722 5722 5722 5722 5724
5621 5618 5615 5612 5612 5611 5613 5615 5618 5623 5625 5631 5632 5633 5637 5640 5641 5647 5651 5652 5655 5657 5658 5661 5662 5663 5666 5672 5678 5683 5688 5693 5696 5701 5704 5706 5708 5707 5707 5708 5708 5709 5708
5612 5609 5607 5605 5600 5598 5598 5599 5602 5606 5608 5609 5611 5613 5615 5619 5623 5626 5628 5632 5635 5638 5638 5640 5643 5646 5650 5654 5658 5662 5669 5674 5680 5683 5685 5687 5689 5690 5690 5692 5694 5696 5697
5600 5598 5596 5593 5590 5589 5588 5586 5586 5587 5592 5592 5592 5592 5596 5598 5601 5605 5609 5612 5615 5619 5620 5623 5627 5630 5633 5634 5635 5639 5646 5654 5659 5663 5665 5667 5670 5670 5671 5674 5678 5680 5685
5590 5587 5584 5582 5579 5577 5574 5571 5570 5570 5572 5571 5574 5576 5576 5578 5582 5583 5586 5591 5593 5598 5601 5604 5609 5611 5618 5615 5616 5618 5623 5631 5639 5644 5646 5647 5650 5650 5651 5653 5656 5662 5667
5579 5575 5572 5569 5566 5563 5561 5559 5558 5556 5553 5555 5555 5553 5555 5556 5557 5560 5564 5567 5569 5574 5579 5586 5592 5592 5594 5597 5596 5599 5603 5607 5612 5619 5623 5626 5628 5631 5631 5632 5636 5640 5644
5572 5566 5562 5558 5553 5550 5549 5547 5545 5543 5542 5540 5536 5534 5533 5532 5533 5537 5541 5544 5546 5551 5556 5562 5568 5572 5577 5577 5579 5578 5579 5583 5588 5593 5597 5602 5606 5608 5610 5611 5614 5617 5621
5564 5557 5552 5548 5542 5539 5535 5535 5534 5532 5528 5525 5521 5515 5512 5509 5510 5509 5514 5517 5523 5529 5535 5537 5544 5551 5555 5556 5558 5556 5557 5560 5567 5572 5575 5578 5583 5586 5589 5591 5594 5596 5599
5554 5549 5543 5538 5533 5529 5526 5522 5520 5518 5515 5514 5510 5505 5499 5493 5488 5486 5488 5490 5495 5499 5504 5509 5516 5522 5527 5532 5535 5533 5533 5537 5546 5550 5554 5557 5560 5564 5567 5569 5572 5575 5578
5547 5540 5534 5529 5524 5519 5514 5511 5509 5505 5502 5497 5493 5489 5484 5477 5473 5469 5467 5469 5473 5472 5475 5481 5485 5490 5500 5509 5506 5507 5509 5512 5517 5522 5529 5534 5536 5539 5542 5547 5551 5555 5556
5539 5532 5525 5520 5515 5509 5503 5499 5496 5492 5489 5484 5479 5474 5467 5462 5459 5456 5454 5450 5450 5447 5448 5452 5457 5465 5470 5477 5479 5482 5484 5486 5488 5494 5502 5504 5510 5515 5519 5524 5527 5531 5536